Regional Weather Roundup
Issued by NWS Huntsville, AL

Home | Current Version | Previous Version | Text Only | Print | Product List | Glossary On
Versions: 1 2 3 4 5 6 7 8 9 10 11 12 13 14 15 16 17 18 19 20 21 22 23 24 25 26 27 28 29 30 31 32 33 34 35 36 37 38 39 40 41 42 43 44 45 46 47 48 49 50
000
ASUS44 KHUN 042310
RWRHUN

WEATHER ROUNDUP FOR THE TENNESSEE VALLEY
NATIONAL WEATHER SERVICE HUNTSVILLE AL
600 PM CDT SAT JUL 04 2015

ALZ001>004-050000-
NORTHWEST ALABAMA

CITY           SKY/WX    TMP DP  RH WIND       PRES   REMARKS
COURTLAND HCN    N/A     77 N/A N/A S3          N/A
RUSSELLVILLE     N/A     75 N/A N/A MISG        N/A
SHOALS AIRPORT CLOUDY    78  68  71 SW5       30.00R
SHOALS TVA RES   N/A     75 N/A N/A MISG        N/A
$$

ALZ005>007-016-050000-
NORTH CENTRAL ALABAMA

CITY           SKY/WX    TMP DP  RH WIND       PRES   REMARKS
CULLMAN AG STN   N/A     77 N/A N/A CALM        N/A
DECATUR AP     CLOUDY    79  71  76 S3        30.00R
HUNTSVILLE AP  CLOUDY    81  70  69 S6        29.99R
HUN NWS/UAH      N/A     79  67  67 S5          N/A
MERIDIANVILLE  CLOUDY    77  64  65 SW5       29.99S
REDSTONE ARSN  CLOUDY    78  71  78 S9        29.98S
VINEMONT AP    MOCLDY    76  68  77 S3        30.03S
$$

ALZ008>010-050000-
NORTHEAST ALABAMA

CITY           SKY/WX    TMP DP  RH WIND       PRES   REMARKS
ALBERTVILLE    LGT RAIN  75  73  94 CALM      30.01F
FORT PAYNE     CLOUDY    77  63  61 CALM      30.00F
SCOTTSBORO AP  LGT RAIN  79  68  69 SW3       30.00S
SCOTTSBORO HCN   N/A     75 N/A N/A MISG        N/A
VALLEY HEAD      N/A     75 N/A N/A MISG        N/A
$$

TNZ076-096-097-050000-
SOUTHEASTERN MIDDLE TENNESSEE

CITY           SKY/WX    TMP DP  RH WIND       PRES   REMARKS
TULLAHOMA      MOSUNNY   73  70  88 CALM      30.01S
WINCHESTER     SUNNY     75  72  88 CALM      30.00S
$$

...SURROUNDING SITES...

CITY           SKY/WX    TMP DP  RH WIND       PRES   REMARKS
ATLANTA        PTSUNNY   83  69  62 SW6       30.03F
ANNISTON       LGT RAIN  81  71  71 SW5       30.01F
BIRMINGHAM     CLOUDY    76  72  87 S5        30.03R
CHATTANOOGA    PTSUNNY   81  67  62 S9        30.00F
CORINTH        FAIR      75  70  83 S3        29.99R
DALTON         PTSUNNY   79  70  73 CALM      30.01F
GADSDEN        CLOUDY    86  70  58 CALM      29.99F HX  90
GOLDEN TRNGL   PTSUNNY   79  70  73 SW9       29.99S
HALEYVILLE     RAIN      71  70  97 CALM      30.04R FOG
JACKSON TN     CLOUDY    77  69  76 SW8       29.98S
MEMPHIS        PTSUNNY   79  70  74 SW6       29.98R
NASHVILLE      CLOUDY    76  73  91 S5        29.97S THUNDER
ROME           PTSUNNY   81  69  67 CALM      30.00F
SAVANNAH       MOSUNNY   75  32  20 SW5       29.99S
TUPELO         CLOUDY    75  70  84 CALM      30.00R
TUSCALOOSA     CLOUDY    72  69  90 S10       30.02R
$$

...GULF COAST WEATHER...

CITY           SKY/WX    TMP DP  RH WIND       PRES   REMARKS
GULFPORT       CLOUDY    81  69  67 N10       30.06R
PASCAGOULA     HVY RAIN  73  69  87 NW12G30   30.10R FOG
MOBILE         CLOUDY    72  68  87 NW3       30.09F
GULF SHORES    PTCLDY    86  74  66 W6        30.05F HX  94
PENSACOLA      SUNNY     86  75  69 SW13      30.04F HX  95
DESTIN         SUNNY     87  77  72 VRB7      30.05F HX  99
APPALACHICOLA  SUNNY     89  74  60 SW12      30.06S HX  98
$$




USA.gov is the U.S. government's official web portal to all federal, state and local government web resources and services.